Location: Nashville
(36.1660°N, 86.7840°W)
Time: 23:54:54
(UTC-06:00)

Vanguard 2 - Visible Passes

Search period start: 30 November 2022 00:00
Search period end: 10 December 2022 00:00
Orbit: 553 x 2933 km, 32.9° (Epoch: 30 November)

Date Brightness Start Highest point End Pass type
(mag) Time Alt. Az. Time Alt. Az. Time Alt. Az.
30 Nov 10.4 17:06:30 10° SW 17:19:00 55° SSE 17:34:40 13° E visible
30 Nov 10.2 19:15:26 10° WSW 19:31:05 78° S 19:36:00 58° ESE visible
30 Nov 10.7 21:26:41 10° W 21:37:20 47° W 21:37:20 47° W visible
01 Dec 10.3 17:23:16 10° SW 17:36:03 63° SSE 17:50:38 17° E visible
01 Dec 10.1 19:32:41 10° W 19:48:31 80° S 19:51:57 66° ESE visible
01 Dec 10.9 21:44:05 10° W 21:53:17 40° W 21:53:17 40° W visible
02 Dec 10.2 17:40:12 10° WSW 17:53:13 70° SSE 18:06:35 22° E visible
02 Dec 10.1 19:49:58 10° W 20:05:58 79° S 20:07:56 74° SE visible
02 Dec 11.1 22:01:31 10° W 22:09:15 33° W 22:09:15 33° W visible
03 Dec 10.2 17:57:16 10° WSW 18:10:31 75° SSE 18:22:34 26° E visible
03 Dec 10.1 20:07:17 10° W 20:23:24 77° S 20:23:54 77° S visible
03 Dec 11.3 22:19:00 10° W 22:25:14 27° W 22:25:14 27° W visible
04 Dec 10.1 18:14:24 10° WSW 18:27:52 78° S 18:38:34 31° E visible
04 Dec 10.2 20:24:37 10° W 20:39:54 72° SSW 20:39:54 72° SSW visible
04 Dec 11.5 22:36:35 10° W 22:41:15 22° W 22:41:15 22° W visible
05 Dec 10.1 18:31:36 10° W 18:45:17 79° S 18:54:37 37° E visible
05 Dec 10.3 20:41:57 10° W 20:55:57 64° SW 20:55:57 64° SW visible
05 Dec 11.7 22:54:21 10° W 22:57:18 17° W 22:57:18 17° W visible
06 Dec 10.1 16:39:55 10° WSW 16:50:40 70° SSE 17:07:18 10° E visible
06 Dec 10.1 18:48:50 10° W 19:02:41 78° S 19:10:42 42° ESE visible
06 Dec 10.5 20:59:19 10° W 21:12:04 55° WSW 21:12:04 55° WSW visible
06 Dec 11.8 23:12:24 10° W 23:13:24 12° W 23:13:24 12° W visible
07 Dec 10.0 16:56:57 10° WSW 17:07:55 75° S 17:24:48 10° E visible
07 Dec 10.1 19:06:05 10° W 19:20:05 75° S 19:26:53 47° ESE visible
07 Dec 10.7 21:16:45 10° W 21:28:14 46° WSW 21:28:14 46° WSW visible
08 Dec 10.0 17:14:03 10° W 17:25:14 78° S 17:41:47 11° E visible
08 Dec 10.2 19:23:20 10° W 19:37:25 70° SSW 19:43:08 51° SE visible
08 Dec 10.9 21:34:19 10° W 21:44:30 38° WSW 21:44:30 38° WSW visible
09 Dec 10.0 17:31:13 10° W 17:42:34 78° S 17:58:07 14° E visible
09 Dec 10.3 19:40:37 10° W 19:54:43 64° SSW 19:59:30 52° SSE visible
09 Dec 11.2 21:52:05 10° W 22:00:52 31° WSW 22:00:52 31° WSW visible
